Date,TemperatureHighF,TemperatureAvgF,TemperatureLowF,DewpointHighF,DewpointAvgF,DewpointLowF,HumidityHigh,HumidityAvg,HumidityLow,PressureMaxIn,PressureMinIn,WindSpeedMaxMPH,WindSpeedAvgMPH,GustSpeedMaxMPH,PrecipitationSumIn
2013-7-1,82.0,74.7,70.0,76.0,71.8,69.0,98,92,73,29.93,29.78,6,1,16,1.36
2013-7-2,78.0,73.3,71.0,74.0,72.2,69.0,98,96,86,30.13,29.93,6,1,13,0.54
2013-7-3,85.0,77.7,74.0,76.0,73.3,71.0,98,87,72,30.19,30.10,7,1,16,0.02
2013-7-4,89.0,80.8,73.0,75.0,72.0,68.0,97,76,50,30.22,30.13,7,2,17,0.01
2013-7-5,90.0,77.8,72.0,75.0,72.4,70.0,98,85,55,30.22,30.10,5,1,14,0.01
2013-7-6,88.0,78.2,73.0,74.0,72.2,69.0,98,83,60,30.19,30.07,6,1,11,0.00
2013-7-7,90.0,79.2,69.0,74.0,71.3,67.0,98,78,56,30.13,30.01,7,1,14,0.00
2013-7-8,83.0,75.2,72.0,78.0,70.5,-99.9,96,88,75,30.11,30.04,6,0,15,0.33
2013-7-9,86.0,75.4,72.0,77.0,73.0,71.0,99,93,73,30.10,30.01,3,0,13,0.34
2013-7-10,85.0,75.1,73.0,78.0,70.7,-99.9,98,91,72,30.05,29.89,2,0,13,0.31
2013-7-11,84.0,75.0,72.0,74.0,72.2,71.0,98,92,70,29.92,29.83,3,0,9,0.39
2013-7-12,77.0,72.7,71.0,73.0,71.5,70.0,99,96,84,29.93,29.81,1,0,10,0.23
2013-7-13,78.0,73.5,71.0,76.0,71.9,70.0,98,96,91,30.10,29.94,2,0,11,0.34
2013-7-14,87.0,76.8,70.0,77.0,72.9,69.0,99,89,61,30.23,30.10,6,0,14,0.76
2013-7-15,90.0,77.6,70.0,76.0,72.1,69.0,99,85,54,30.25,30.18,2,0,5,0.56
2013-7-16,94.0,78.9,70.0,75.0,71.7,69.0,99,81,48,30.21,30.11,1,0,11,0.11
2013-7-17,92.0,80.8,74.0,77.0,73.8,71.0,98,82,52,30.15,30.04,3,0,8,0.11
2013-7-18,93.0,81.1,76.0,78.0,74.9,73.0,96,83,53,30.09,29.98,2,0,6,0.01
2013-7-19,90.0,81.6,74.0,76.0,73.5,69.0,97,78,55,30.04,29.93,4,0,13,0.01
2013-7-20,90.0,80.7,75.0,75.0,71.1,-99.9,90,75,59,29.98,29.87,6,1,12,0.00
2013-7-21,89.0,78.1,72.0,76.0,72.3,70.0,98,83,63,29.94,29.84,5,0,12,1.34
2013-7-22,88.0,76.0,72.0,76.0,73.0,71.0,99,91,66,29.90,29.77,3,0,9,0.01
2013-7-23,89.0,79.8,74.0,76.0,72.7,71.0,94,80,56,29.80,29.67,3,0,11,0.01
2013-7-24,93.0,81.7,71.0,74.0,71.1,67.0,97,73,44,29.79,29.67,3,0,7,0.61
2013-7-25,80.0,74.0,69.0,71.0,69.7,67.0,98,88,70,29.96,29.75,2,0,9,0.74
2013-7-26,86.0,73.4,64.0,69.0,65.4,60.0,98,79,46,30.04,29.95,0,0,1,0.01
2013-7-27,87.0,75.8,68.0,73.0,69.3,66.0,98,82,54,30.00,29.88,3,0,11,0.45
2013-7-28,87.0,77.0,70.0,75.0,71.3,67.0,99,84,53,29.93,29.86,2,0,9,0.03
2013-7-29,88.0,76.9,71.0,72.0,69.9,66.0,96,80,53,30.09,29.93,0,0,1,0.02
2013-7-30,88.0,75.8,65.0,71.0,66.9,63.0,94,76,45,30.15,30.07,2,0,6,0.00
2013-7-31,83.0,76.7,72.0,74.0,71.0,69.0,96,83,69,30.09,29.95,2,0,9,0.33